When you browse on this site, cookies collect data to enhance your experience and personalize the content and advertising you see.
Visit our Privacy Policy to learn more. By continuing to use the site, you agree to this use of cookies and data.
  • In United Kingdom
  • List of Countries
  • For 7 days
  • Water Temperature
  • Weather Map
  • Weather Widgets
  • user-avatar
    Login

    Hourly Weather Juticalpa

    Today, 25 August, Sunday

    Time Temperature Precipitation Wind Pressure Humidity
    00:00 +21°C° 0 mm 0 mps 727 mmHg 97%
    01:00 +21°C° 0 mm 0 mps 727 mmHg 97%
    02:00 +21°C° 0 mm 0 mps 727 mmHg 97%
    03:00 +21°C° 0 mm 0 mps 726 mmHg 97%
    04:00 +21°C° 0 mm 0 mps 726 mmHg 97%
    05:00 +22°C° 0 mm 0 mps 726 mmHg 96%
    06:00 +22°C° 0 mm 0 mps 726 mmHg 95%
    07:00 +24°C° 0 mm 0 mps 727 mmHg 86%
    08:00 +27°C° 0 mm 1 mps 727 mmHg 77%
    09:00 +29°C° 0 mm 1 mps 728 mmHg 68%
    10:00 +30°C° 0 mm 1 mps 727 mmHg 62%
    11:00 +32°C° 0 mm 1 mps 727 mmHg 56%
    12:00 +33°C° 0 mm 1 mps 727 mmHg 50%
    13:00 +34°C° 0.3 mm 2 mps 726 mmHg 53%
    14:00 +34°C° 0.3 mm 2 mps 725 mmHg 56%
    15:00 +34°C° 0.3 mm 2 mps 725 mmHg 59%
    16:00 +30°C° 1.2 mm 2 mps 725 mmHg 69%
    17:00 +28°C° 1.2 mm 2 mps 725 mmHg 79%
    18:00 +26°C° 1.2 mm 1 mps 725 mmHg 88%
    19:00 +26°C° 0.1 mm 1 mps 726 mmHg 91%
    20:00 +25°C° 0.1 mm 1 mps 726 mmHg 93%
    21:00 +22°C° 0.1 mm 0 mps 727 mmHg 96%
    22:00 +22°C° 0 mm 0 mps 727 mmHg 96%
    23:00 +22°C° 0 mm 0 mps 727 mmHg 96%

    Tomorrow, 26 August, Monday

    Time Temperature Precipitation Wind Pressure Humidity
    00:00 +21°C° 0 mm 0 mps 726 mmHg 97%
    01:00 +21°C° 0 mm 0 mps 726 mmHg 97%
    02:00 +21°C° 0 mm 0 mps 726 mmHg 97%
    03:00 +21°C° 0 mm 0 mps 726 mmHg 97%
    04:00 +21°C° 0 mm 0 mps 726 mmHg 97%
    05:00 +22°C° 0 mm 0 mps 726 mmHg 96%
    06:00 +22°C° 0 mm 0 mps 726 mmHg 96%
    07:00 +26°C° 0.1 mm 1 mps 727 mmHg 89%
    08:00 +27°C° 0.1 mm 1 mps 727 mmHg 82%
    09:00 +29°C° 0.1 mm 1 mps 727 mmHg 74%
    10:00 +30°C° 0 mm 2 mps 727 mmHg 68%
    11:00 +32°C° 0 mm 2 mps 726 mmHg 61%
    12:00 +34°C° 0 mm 2 mps 726 mmHg 55%
    13:00 +34°C° 0 mm 2 mps 725 mmHg 53%
    14:00 +35°C° 0 mm 2 mps 725 mmHg 52%
    15:00 +35°C° 0 mm 2 mps 724 mmHg 51%
    16:00 +32°C° 0.1 mm 2 mps 724 mmHg 59%
    17:00 +30°C° 0.1 mm 2 mps 725 mmHg 67%
    18:00 +28°C° 0.1 mm 2 mps 725 mmHg 75%
    19:00 +26°C° 0 mm 2 mps 725 mmHg 82%
    20:00 +25°C° 0 mm 1 mps 726 mmHg 88%
    21:00 +24°C° 0 mm 1 mps 727 mmHg 94%
    22:00 +24°C° 0 mm 1 mps 727 mmHg 95%
    23:00 +21°C° 0 mm 0 mps 727 mmHg 96%

    Day after tomorrow, 27 August, Tuesday

    Time Temperature Precipitation Wind Pressure Humidity
    00:00 +21°C° 0 mm 0 mps 726 mmHg 97%
    01:00 +21°C° 0 mm 0 mps 726 mmHg 97%
    02:00 +21°C° 0 mm 0 mps 726 mmHg 97%
    03:00 +21°C° 0 mm 0 mps 726 mmHg 97%
    04:00 +21°C° 0 mm 0 mps 726 mmHg 97%
    05:00 +21°C° 0 mm 0 mps 726 mmHg 97%
    06:00 +21°C° 0 mm 0 mps 726 mmHg 97%
    07:00 +25°C° 0 mm 1 mps 727 mmHg 88%
    08:00 +27°C° 0 mm 1 mps 727 mmHg 80%
    09:00 +29°C° 0 mm 2 mps 727 mmHg 71%
    10:00 +31°C° 0 mm 2 mps 727 mmHg 65%
    11:00 +32°C° 0 mm 2 mps 727 mmHg 59%
    12:00 +34°C° 0 mm 3 mps 726 mmHg 53%
    13:00 +34°C° 0.1 mm 3 mps 726 mmHg 54%
    14:00 +34°C° 0.1 mm 4 mps 725 mmHg 55%
    15:00 +34°C° 0.1 mm 4 mps 725 mmHg 56%
    16:00 +30°C° 0.5 mm 3 mps 725 mmHg 66%
    17:00 +28°C° 0.5 mm 2 mps 726 mmHg 77%
    18:00 +26°C° 0.5 mm 1 mps 726 mmHg 87%
    19:00 +25°C° 0 mm 1 mps 726 mmHg 90%
    20:00 +24°C° 0 mm 1 mps 727 mmHg 94%
    21:00 +22°C° 0 mm 0 mps 727 mmHg 97%
    22:00 +21°C° 0 mm 0 mps 727 mmHg 97%
    23:00 +21°C° 0 mm 0 mps 727 mmHg 97%

    28 August, Wednesday

    Time Temperature Precipitation Wind Pressure Humidity
    00:00 +21°C° 0 mm 0 mps 727 mmHg 97%
    01:00 +21°C° 0 mm 0 mps 727 mmHg 97%
    02:00 +21°C° 0 mm 0 mps 727 mmHg 97%
    03:00 +21°C° 0 mm 0 mps 726 mmHg 96%
    04:00 +21°C° 0.1 mm 0 mps 727 mmHg 96%
    05:00 +21°C° 0.1 mm 0 mps 727 mmHg 96%
    06:00 +21°C° 0.1 mm 0 mps 727 mmHg 96%
    07:00 +22°C° 0.2 mm 0 mps 728 mmHg 92%
    08:00 +26°C° 0.2 mm 1 mps 728 mmHg 87%
    09:00 +27°C° 0.2 mm 1 mps 729 mmHg 82%
    10:00 +28°C° 0.2 mm 2 mps 728 mmHg 75%
    11:00 +30°C° 0.2 mm 3 mps 728 mmHg 68%
    12:00 +31°C° 0.2 mm 3 mps 728 mmHg 61%
    13:00 +30°C° 0.1 mm 3 mps 727 mmHg 63%
    14:00 +30°C° 0.1 mm 3 mps 726 mmHg 65%
    15:00 +29°C° 0.1 mm 2 mps 726 mmHg 67%
    16:00 +28°C° 0 mm 2 mps 726 mmHg 72%
    17:00 +27°C° 0 mm 1 mps 726 mmHg 77%
    18:00 +25°C° 0 mm 1 mps 726 mmHg 82%
    19:00 +22°C° 0 mm 0 mps 727 mmHg 86%
    20:00 +22°C° 0 mm 0 mps 727 mmHg 89%
    21:00 +21°C° 0 mm 0 mps 728 mmHg 92%
    22:00 +21°C° 0 mm 0 mps 728 mmHg 93%
    23:00 +20°C° 0 mm 0 mps 728 mmHg 94%

    29 August, Thursday

    Time Temperature Precipitation Wind Pressure Humidity
    00:00 +20°C° 0 mm 0 mps 728 mmHg 95%
    01:00 +20°C° 0 mm 0 mps 727 mmHg 95%
    02:00 +20°C° 0 mm 0 mps 727 mmHg 95%
    03:00 +20°C° 0 mm 0 mps 727 mmHg 95%
    04:00 +20°C° 0 mm 0 mps 727 mmHg 95%
    05:00 +20°C° 0 mm 0 mps 727 mmHg 96%
    06:00 +19°C° 0 mm 0 mps 727 mmHg 96%
    07:00 +22°C° 0 mm 0 mps 728 mmHg 85%
    08:00 +25°C° 0 mm 0 mps 728 mmHg 74%
    09:00 +28°C° 0 mm 0 mps 728 mmHg 63%
    10:00 +31°C° 0 mm 1 mps 728 mmHg 58%
    11:00 +32°C° 0 mm 1 mps 728 mmHg 52%
    12:00 +34°C° 0 mm 2 mps 727 mmHg 47%
    13:00 +34°C° 0 mm 2 mps 727 mmHg 46%
    14:00 +35°C° 0 mm 2 mps 726 mmHg 45%
    15:00 +35°C° 0 mm 2 mps 725 mmHg 44%
    16:00 +32°C° 0.1 mm 2 mps 726 mmHg 51%
    17:00 +30°C° 0.1 mm 2 mps 726 mmHg 59%
    18:00 +28°C° 0.1 mm 1 mps 726 mmHg 67%
    19:00 +26°C° 0.8 mm 1 mps 727 mmHg 75%
    20:00 +25°C° 0.8 mm 1 mps 727 mmHg 83%
    21:00 +23°C° 0.8 mm 1 mps 728 mmHg 91%
    22:00 +21°C° 0 mm 0 mps 728 mmHg 92%
    23:00 +21°C° 0 mm 0 mps 727 mmHg 93%

    30 August, Friday

    Time Temperature Precipitation Wind Pressure Humidity
    00:00 +20°C° 0 mm 0 mps 727 mmHg 95%
    01:00 +20°C° 0 mm 0 mps 727 mmHg 95%
    02:00 +20°C° 0 mm 0 mps 726 mmHg 96%
    03:00 +19°C° 0 mm 0 mps 726 mmHg 96%
    04:00 +19°C° 0 mm 0 mps 726 mmHg 96%
    05:00 +19°C° 0 mm 0 mps 727 mmHg 96%
    06:00 +19°C° 0 mm 0 mps 727 mmHg 96%
    07:00 +22°C° 0 mm 0 mps 727 mmHg 86%
    08:00 +25°C° 0 mm 0 mps 727 mmHg 76%
    09:00 +27°C° 0 mm 0 mps 728 mmHg 66%
    10:00 +31°C° 0 mm 1 mps 727 mmHg 58%
    11:00 +32°C° 0 mm 1 mps 727 mmHg 50%
    12:00 +34°C° 0 mm 2 mps 726 mmHg 42%
    13:00 +34°C° 0 mm 2 mps 726 mmHg 41%
    14:00 +35°C° 0 mm 2 mps 725 mmHg 40%
    15:00 +35°C° 0 mm 2 mps 725 mmHg 40%
    16:00 +32°C° 0 mm 1 mps 725 mmHg 47%
    17:00 +30°C° 0 mm 1 mps 725 mmHg 54%
    18:00 +27°C° 0 mm 1 mps 726 mmHg 61%
    19:00 +26°C° 0 mm 1 mps 726 mmHg 66%
    20:00 +25°C° 0 mm 1 mps 727 mmHg 70%
    21:00 +24°C° 0 mm 1 mps 728 mmHg 75%
    22:00 +22°C° 0 mm 0 mps 727 mmHg 79%
    23:00 +21°C° 0 mm 0 mps 727 mmHg 84%
    Show more